Location: Chircca
(13.7944°S, 72.0608°W)
Time: 06:29:03
(UTC+00:00)

Cosmos 2082 - Pass Details

Date: 14 July 2020
Orbit: 835 x 854 km, 71.0° (Epoch: 14 August)

Event Time Altitude Azimuth Distance (km) Brightness Sun altitude
Rises 10:34:02 0° 200° (SSW) 3,431 6.5 -9.6°
Reaches altitude 10° 10:36:31 10° 202° (SSW) 2,489 5.8 -9.1°
Maximum altitude 10:42:12 70° 285° (WNW) 904 3.7 -7.8°
Drops below altitude 10° 10:47:49 10° 8° (N) 2,458 6.5 -6.5°
Sets 10:50:15 0° 10° (N) 3,384 7.3 -5.9°
